Year,Month,Day,Hour,Minute,Value (Times are PST for insolation in W/m^2)
2008,03,29,00,00,0.00
2008,03,29,00,01,0.00
2008,03,29,00,02,0.00
2008,03,29,00,03,0.00
2008,03,29,00,04,0.00
2008,03,29,00,05,0.00
2008,03,29,00,06,0.00
2008,03,29,00,07,0.00
2008,03,29,00,08,0.00
2008,03,29,00,09,0.00
2008,03,29,00,10,0.00
2008,03,29,00,11,0.00
2008,03,29,00,12,0.00
2008,03,29,00,13,0.00
2008,03,29,00,14,0.00
2008,03,29,00,15,0.00
2008,03,29,00,16,0.00
2008,03,29,00,17,0.00
2008,03,29,00,18,0.00
2008,03,29,00,19,0.00
2008,03,29,00,20,0.00
2008,03,29,00,21,0.00
2008,03,29,00,22,0.00
2008,03,29,00,23,0.00
2008,03,29,00,24,0.00
2008,03,29,00,25,0.00
2008,03,29,00,26,0.00
2008,03,29,00,27,0.00
2008,03,29,00,28,0.00
2008,03,29,00,29,0.00
2008,03,29,00,30,0.00
2008,03,29,00,31,0.00
2008,03,29,00,32,0.00
2008,03,29,00,33,0.00
2008,03,29,00,34,0.00
2008,03,29,00,35,0.00
2008,03,29,00,36,0.00
2008,03,29,00,37,0.00
2008,03,29,00,38,0.00
2008,03,29,00,39,0.00
2008,03,29,00,40,0.00
2008,03,29,00,41,0.00
2008,03,29,00,42,0.00
2008,03,29,00,43,0.00
2008,03,29,00,44,0.00
2008,03,29,00,45,0.00
2008,03,29,00,46,0.00
2008,03,29,00,47,0.00
2008,03,29,00,48,0.00
2008,03,29,00,49,0.00
2008,03,29,00,50,0.00
2008,03,29,00,51,0.00
2008,03,29,00,52,0.00
2008,03,29,00,53,0.00
2008,03,29,00,54,0.00
2008,03,29,00,55,0.00
2008,03,29,00,56,0.00
2008,03,29,00,57,0.00
2008,03,29,00,58,0.00
2008,03,29,00,59,0.00
2008,03,29,01,00,0.00
2008,03,29,01,01,0.00
2008,03,29,01,02,0.00
2008,03,29,01,03,0.00
2008,03,29,01,04,0.00
2008,03,29,01,05,0.00
2008,03,29,01,06,0.00
2008,03,29,01,07,0.00
2008,03,29,01,08,0.00
2008,03,29,01,09,0.00
2008,03,29,01,10,0.00
2008,03,29,01,11,0.00
2008,03,29,01,12,0.00
2008,03,29,01,13,0.00
2008,03,29,01,14,0.00
2008,03,29,01,15,0.00
2008,03,29,01,16,0.00
2008,03,29,01,17,0.00
2008,03,29,01,18,0.00
2008,03,29,01,19,0.00
2008,03,29,01,20,0.00
2008,03,29,01,21,0.00
2008,03,29,01,22,0.00
2008,03,29,01,23,0.00
2008,03,29,01,24,0.00
2008,03,29,01,25,0.00
2008,03,29,01,26,0.00
2008,03,29,01,27,0.00
2008,03,29,01,28,0.00
2008,03,29,01,29,0.00
2008,03,29,01,30,0.00
2008,03,29,01,31,0.00
2008,03,29,01,32,0.00
2008,03,29,01,33,0.00
2008,03,29,01,34,0.00
2008,03,29,01,35,0.00
2008,03,29,01,36,0.00
2008,03,29,01,37,0.00
2008,03,29,01,38,0.00
2008,03,29,01,39,0.00
2008,03,29,01,40,0.00
2008,03,29,01,41,0.00
2008,03,29,01,42,0.00
2008,03,29,01,43,0.00
2008,03,29,01,44,0.00
2008,03,29,01,45,0.00
2008,03,29,01,46,0.00
2008,03,29,01,47,0.00
2008,03,29,01,48,0.00
2008,03,29,01,49,0.00
2008,03,29,01,50,0.00
2008,03,29,01,51,0.00
2008,03,29,01,52,0.00
2008,03,29,01,53,0.00
2008,03,29,01,54,0.00
2008,03,29,01,55,0.00
2008,03,29,01,56,0.00
2008,03,29,01,57,0.00
2008,03,29,01,58,0.00
2008,03,29,01,59,0.00
2008,03,29,02,00,0.00
2008,03,29,02,01,0.00
2008,03,29,02,02,0.00
2008,03,29,02,03,0.00
2008,03,29,02,04,0.00
2008,03,29,02,05,0.00
2008,03,29,02,06,0.00
2008,03,29,02,07,0.00
2008,03,29,02,08,0.00
2008,03,29,02,09,0.00
2008,03,29,02,10,0.00
2008,03,29,02,11,0.00
2008,03,29,02,12,0.00
2008,03,29,02,13,0.00
2008,03,29,02,14,0.00
2008,03,29,02,15,0.00
2008,03,29,02,16,0.00
2008,03,29,02,17,0.00
2008,03,29,02,18,0.00
2008,03,29,02,19,0.00
2008,03,29,02,20,0.00
2008,03,29,02,21,0.00
2008,03,29,02,22,0.00
2008,03,29,02,23,0.00
2008,03,29,02,24,0.00
2008,03,29,02,25,0.00
2008,03,29,02,26,0.00
2008,03,29,02,27,0.00
2008,03,29,02,28,0.00
2008,03,29,02,29,0.00
2008,03,29,02,30,0.00
2008,03,29,02,31,0.00
2008,03,29,02,32,0.00
2008,03,29,02,33,0.00
2008,03,29,02,34,0.00
2008,03,29,02,35,0.00
2008,03,29,02,36,0.00
2008,03,29,02,37,0.00
2008,03,29,02,38,0.00
2008,03,29,02,39,0.00
2008,03,29,02,40,0.00
2008,03,29,02,41,0.00
2008,03,29,02,42,0.00
2008,03,29,02,43,0.00
2008,03,29,02,44,0.00
2008,03,29,02,45,0.00
2008,03,29,02,46,0.00
2008,03,29,02,47,0.00
2008,03,29,02,48,0.00
2008,03,29,02,49,0.00
2008,03,29,02,50,0.00
2008,03,29,02,51,0.00
2008,03,29,02,52,0.00
2008,03,29,02,53,0.00
2008,03,29,02,54,0.00
2008,03,29,02,55,0.00
2008,03,29,02,56,0.00
2008,03,29,02,57,0.00
2008,03,29,02,58,0.00
2008,03,29,02,59,0.00
2008,03,29,03,00,0.00
2008,03,29,03,01,0.00
2008,03,29,03,02,0.00
2008,03,29,03,03,0.00
2008,03,29,03,04,0.00
2008,03,29,03,05,0.00
2008,03,29,03,06,0.00
2008,03,29,03,07,0.00
2008,03,29,03,08,0.00
2008,03,29,03,09,0.00
2008,03,29,03,10,0.00
2008,03,29,03,11,0.00
2008,03,29,03,12,0.00
2008,03,29,03,13,0.00
2008,03,29,03,14,0.00
2008,03,29,03,15,0.00
2008,03,29,03,16,0.00
2008,03,29,03,17,0.00
2008,03,29,03,18,0.00
2008,03,29,03,19,0.00
2008,03,29,03,20,0.00
2008,03,29,03,21,0.00
2008,03,29,03,22,0.00
2008,03,29,03,23,0.00
2008,03,29,03,24,0.00
2008,03,29,03,25,0.00
2008,03,29,03,26,0.00
2008,03,29,03,27,0.00
2008,03,29,03,28,0.00
2008,03,29,03,29,0.00
2008,03,29,03,30,0.00
2008,03,29,03,31,0.00
2008,03,29,03,32,0.00
2008,03,29,03,33,0.00
2008,03,29,03,34,0.00
2008,03,29,03,35,0.00
2008,03,29,03,36,0.00
2008,03,29,03,37,0.00
2008,03,29,03,38,0.00
2008,03,29,03,39,0.00
2008,03,29,03,40,0.00
2008,03,29,03,41,0.00
2008,03,29,03,42,0.00
2008,03,29,03,43,0.00
2008,03,29,03,44,0.00
2008,03,29,03,45,0.00
2008,03,29,03,46,0.00
2008,03,29,03,47,0.00
2008,03,29,03,48,0.00
2008,03,29,03,49,0.00
2008,03,29,03,50,0.00
2008,03,29,03,51,0.00
2008,03,29,03,52,0.00
2008,03,29,03,53,0.00
2008,03,29,03,54,0.00
2008,03,29,03,55,0.00
2008,03,29,03,56,0.00
2008,03,29,03,57,0.00
2008,03,29,03,58,0.00
2008,03,29,03,59,0.00
2008,03,29,04,00,0.00
2008,03,29,04,01,0.00
2008,03,29,04,02,0.00
2008,03,29,04,03,0.00
2008,03,29,04,04,0.00
2008,03,29,04,05,0.00
2008,03,29,04,06,0.00
2008,03,29,04,07,0.00
2008,03,29,04,08,0.00
2008,03,29,04,09,0.00
2008,03,29,04,10,0.00
2008,03,29,04,11,0.00
2008,03,29,04,12,0.00
2008,03,29,04,13,0.00
2008,03,29,04,14,0.00
2008,03,29,04,15,0.00
2008,03,29,04,16,0.00
2008,03,29,04,17,0.00
2008,03,29,04,18,0.00
2008,03,29,04,19,0.00
2008,03,29,04,20,0.00
2008,03,29,04,21,0.00
2008,03,29,04,22,0.00
2008,03,29,04,23,0.00
2008,03,29,04,24,0.00
2008,03,29,04,25,0.00
2008,03,29,04,26,0.00
2008,03,29,04,27,0.00
2008,03,29,04,28,0.00
2008,03,29,04,29,0.00
2008,03,29,04,30,0.00
2008,03,29,04,31,0.00
2008,03,29,04,32,0.00
2008,03,29,04,33,0.00
2008,03,29,04,34,0.00
2008,03,29,04,35,0.00
2008,03,29,04,36,0.00
2008,03,29,04,37,0.00
2008,03,29,04,38,0.00
2008,03,29,04,39,0.00
2008,03,29,04,40,0.00
2008,03,29,04,41,0.00
2008,03,29,04,42,0.00
2008,03,29,04,43,0.00
2008,03,29,04,44,0.00
2008,03,29,04,45,0.00
2008,03,29,04,46,0.00
2008,03,29,04,47,0.00
2008,03,29,04,48,0.00
2008,03,29,04,49,0.00
2008,03,29,04,50,0.00
2008,03,29,04,51,0.00
2008,03,29,04,52,0.00
2008,03,29,04,53,0.00
2008,03,29,04,54,0.00
2008,03,29,04,55,0.00
2008,03,29,04,56,0.00
2008,03,29,04,57,0.00
2008,03,29,04,58,0.00
2008,03,29,04,59,0.00
2008,03,29,05,00,0.00
2008,03,29,05,01,0.00
2008,03,29,05,02,0.00
2008,03,29,05,03,0.00
2008,03,29,05,04,0.00
2008,03,29,05,05,0.00
2008,03,29,05,06,0.00
2008,03,29,05,07,0.00
2008,03,29,05,08,0.00
2008,03,29,05,09,0.00
2008,03,29,05,10,0.00
2008,03,29,05,11,0.00
2008,03,29,05,12,0.00
2008,03,29,05,13,0.00
2008,03,29,05,14,0.00
2008,03,29,05,15,0.00
2008,03,29,05,16,0.00
2008,03,29,05,17,0.00
2008,03,29,05,18,0.00
2008,03,29,05,19,0.00
2008,03,29,05,20,0.00
2008,03,29,05,21,0.00
2008,03,29,05,22,0.00
2008,03,29,05,23,0.00
2008,03,29,05,24,0.00
2008,03,29,05,25,0.00
2008,03,29,05,26,0.00
2008,03,29,05,27,0.00
2008,03,29,05,28,0.00
2008,03,29,05,29,0.00
2008,03,29,05,30,0.00
2008,03,29,05,31,0.00
2008,03,29,05,32,0.00
2008,03,29,05,33,0.00
2008,03,29,05,34,0.00
2008,03,29,05,35,0.00
2008,03,29,05,36,0.00
2008,03,29,05,37,0.00
2008,03,29,05,38,0.00
2008,03,29,05,39,0.00
2008,03,29,05,40,0.00
2008,03,29,05,41,0.00
2008,03,29,05,42,0.00
2008,03,29,05,43,0.00
2008,03,29,05,44,0.00
2008,03,29,05,45,0.00
2008,03,29,05,46,0.00
2008,03,29,05,47,0.00
2008,03,29,05,48,0.00
2008,03,29,05,49,0.00
2008,03,29,05,50,0.00
2008,03,29,05,51,0.00
2008,03,29,05,52,0.00
2008,03,29,05,53,0.00
2008,03,29,05,54,0.00
2008,03,29,05,55,0.00
2008,03,29,05,56,0.00
2008,03,29,05,57,0.00
2008,03,29,05,58,0.00
2008,03,29,05,59,0.00
2008,03,29,06,00,0.00
2008,03,29,06,01,0.00
2008,03,29,06,02,0.00
2008,03,29,06,03,0.00
2008,03,29,06,04,0.00
2008,03,29,06,05,0.00
2008,03,29,06,06,0.00
2008,03,29,06,07,0.00
2008,03,29,06,08,0.00
2008,03,29,06,09,0.00
2008,03,29,06,10,0.00
2008,03,29,06,11,0.00
2008,03,29,06,12,0.00
2008,03,29,06,13,0.00
2008,03,29,06,14,0.00
2008,03,29,06,15,0.00
2008,03,29,06,16,0.00
2008,03,29,06,17,0.00
2008,03,29,06,18,0.00
2008,03,29,06,19,0.00
2008,03,29,06,20,0.00
2008,03,29,06,21,0.00
2008,03,29,06,22,0.00
2008,03,29,06,23,0.00
2008,03,29,06,24,0.00
2008,03,29,06,25,0.00
2008,03,29,06,26,0.00
2008,03,29,06,27,0.00
2008,03,29,06,28,0.00
2008,03,29,06,29,0.00
2008,03,29,06,30,0.00
2008,03,29,06,31,0.00
2008,03,29,06,32,0.00
2008,03,29,06,33,0.00
2008,03,29,06,34,0.00
2008,03,29,06,35,0.00
2008,03,29,06,36,0.00
2008,03,29,06,37,0.00
2008,03,29,06,38,0.00
2008,03,29,06,39,0.00
2008,03,29,06,40,0.00
2008,03,29,06,41,0.00
2008,03,29,06,42,0.00
2008,03,29,06,43,0.00
2008,03,29,06,44,0.00
2008,03,29,06,45,0.00
2008,03,29,06,46,0.00
2008,03,29,06,47,0.00
2008,03,29,06,48,0.00
2008,03,29,06,49,0.00
2008,03,29,06,50,0.00
2008,03,29,06,51,0.00
2008,03,29,06,52,0.00
2008,03,29,06,53,0.00
2008,03,29,06,54,0.00
2008,03,29,06,55,0.00
2008,03,29,06,56,0.00
2008,03,29,06,57,0.00
2008,03,29,06,58,0.00
2008,03,29,06,59,0.00
2008,03,29,07,00,0.00
2008,03,29,07,01,0.00
2008,03,29,07,02,0.00
2008,03,29,07,03,0.00
2008,03,29,07,04,1.00
2008,03,29,07,05,5.00
2008,03,29,07,06,5.00
2008,03,29,07,07,5.00
2008,03,29,07,08,5.00
2008,03,29,07,09,5.50
2008,03,29,07,10,7.00
2008,03,29,07,11,7.00
2008,03,29,07,12,7.00
2008,03,29,07,13,7.00
2008,03,29,07,14,7.80
2008,03,29,07,15,9.00
2008,03,29,07,16,9.00
2008,03,29,07,17,9.90
2008,03,29,07,18,11.00
2008,03,29,07,19,11.00
2008,03,29,07,20,11.00
2008,03,29,07,21,11.00
2008,03,29,07,22,11.60
2008,03,29,07,23,12.00
2008,03,29,07,24,12.00
2008,03,29,07,25,12.00
2008,03,29,07,26,13.30
2008,03,29,07,27,14.00
2008,03,29,07,28,14.00
2008,03,29,07,29,15.40
2008,03,29,07,30,16.00
2008,03,29,07,31,16.00
2008,03,29,07,32,17.50
2008,03,29,07,33,18.00
2008,03,29,07,34,18.80
2008,03,29,07,35,19.00
2008,03,29,07,36,19.00
2008,03,29,07,37,20.80
2008,03,29,07,38,21.00
2008,03,29,07,39,21.00
2008,03,29,07,40,22.80
2008,03,29,07,41,23.00
2008,03,29,07,42,24.90
2008,03,29,07,43,25.00
2008,03,29,07,44,26.00
2008,03,29,07,45,26.10
2008,03,29,07,46,28.10
2008,03,29,07,47,30.00
2008,03,29,07,48,30.30
2008,03,29,07,49,32.00
2008,03,29,07,50,32.20
2008,03,29,07,51,33.00
2008,03,29,07,52,32.80
2008,03,29,07,53,32.20
2008,03,29,07,54,33.00
2008,03,29,07,55,33.50
2008,03,29,07,56,35.00
2008,03,29,07,57,36.20
2008,03,29,07,58,39.30
2008,03,29,07,59,41.40
2008,03,29,08,00,43.20
2008,03,29,08,01,42.70
2008,03,29,08,02,48.80
2008,03,29,08,03,56.90
2008,03,29,08,04,58.90
2008,03,29,08,05,60.00
2008,03,29,08,06,62.60
2008,03,29,08,07,76.50
2008,03,29,08,08,97.30
2008,03,29,08,09,109.60
2008,03,29,08,10,113.00
2008,03,29,08,11,113.00
2008,03,29,08,12,113.70
2008,03,29,08,13,113.40
2008,03,29,08,14,113.00
2008,03,29,08,15,119.50
2008,03,29,08,16,119.50
2008,03,29,08,17,119.40
2008,03,29,08,18,118.50
2008,03,29,08,19,114.20
2008,03,29,08,20,103.20
2008,03,29,08,21,96.00
2008,03,29,08,22,93.30
2008,03,29,08,23,90.40
2008,03,29,08,24,84.90
2008,03,29,08,25,79.50
2008,03,29,08,26,77.20
2008,03,29,08,27,76.10
2008,03,29,08,28,76.00
2008,03,29,08,29,80.80
2008,03,29,08,30,83.90
2008,03,29,08,31,82.80
2008,03,29,08,32,79.00
2008,03,29,08,33,79.20
2008,03,29,08,34,81.20
2008,03,29,08,35,83.30
2008,03,29,08,36,86.60
2008,03,29,08,37,89.60
2008,03,29,08,38,87.60
2008,03,29,08,39,86.80
2008,03,29,08,40,91.40
2008,03,29,08,41,99.00
2008,03,29,08,42,106.20
2008,03,29,08,43,109.50
2008,03,29,08,44,111.90
2008,03,29,08,45,116.10
2008,03,29,08,46,120.00
2008,03,29,08,47,120.00
2008,03,29,08,48,122.80
2008,03,29,08,49,129.10
2008,03,29,08,50,131.10
2008,03,29,08,51,128.70
2008,03,29,08,52,130.60
2008,03,29,08,53,141.50
2008,03,29,08,54,155.50
2008,03,29,08,55,170.90
2008,03,29,08,56,181.50
2008,03,29,08,57,192.70
2008,03,29,08,58,202.00
2008,03,29,08,59,209.70
2008,03,29,09,00,219.00
2008,03,29,09,01,227.70
2008,03,29,09,02,239.60
2008,03,29,09,03,248.20
2008,03,29,09,04,245.80
2008,03,29,09,05,238.00
2008,03,29,09,06,234.50
2008,03,29,09,07,235.60
2008,03,29,09,08,249.60
2008,03,29,09,09,260.20
2008,03,29,09,10,264.50
2008,03,29,09,11,276.60
2008,03,29,09,12,280.70
2008,03,29,09,13,281.00
2008,03,29,09,14,284.80
2008,03,29,09,15,289.80
2008,03,29,09,16,293.80
2008,03,29,09,17,297.00
2008,03,29,09,18,302.30
2008,03,29,09,19,308.00
2008,03,29,09,20,309.20
2008,03,29,09,21,311.50
2008,03,29,09,22,316.40
2008,03,29,09,23,320.50
2008,03,29,09,24,325.60
2008,03,29,09,25,329.60
2008,03,29,09,26,332.40
2008,03,29,09,27,334.40
2008,03,29,09,28,336.50
2008,03,29,09,29,338.20
2008,03,29,09,30,339.00
2008,03,29,09,31,339.00
2008,03,29,09,32,337.20
2008,03,29,09,33,333.30
2008,03,29,09,34,332.00
2008,03,29,09,35,333.70
2008,03,29,09,36,337.20
2008,03,29,09,37,340.60
2008,03,29,09,38,345.20
2008,03,29,09,39,349.80
2008,03,29,09,40,354.50
2008,03,29,09,41,359.50
2008,03,29,09,42,365.90
2008,03,29,09,43,371.30
2008,03,29,09,44,374.80
2008,03,29,09,45,378.40
2008,03,29,09,46,381.80
2008,03,29,09,47,384.30
2008,03,29,09,48,386.40
2008,03,29,09,49,389.00
2008,03,29,09,50,391.40
2008,03,29,09,51,394.80
2008,03,29,09,52,398.20
2008,03,29,09,53,400.50
2008,03,29,09,54,404.90
2008,03,29,09,55,406.00
2008,03,29,09,56,409.20
2008,03,29,09,57,410.90
2008,03,29,09,58,414.40
2008,03,29,09,59,417.70
2008,03,29,10,00,421.60
2008,03,29,10,01,423.90
2008,03,29,10,02,430.60
2008,03,29,10,03,431.00
2008,03,29,10,04,434.00
2008,03,29,10,05,438.40
2008,03,29,10,06,445.10
2008,03,29,10,07,446.10
2008,03,29,10,08,447.30
2008,03,29,10,09,442.00
2008,03,29,10,10,448.60
2008,03,29,10,11,453.40
2008,03,29,10,12,462.00
2008,03,29,10,13,468.40
2008,03,29,10,14,479.00
2008,03,29,10,15,482.60
2008,03,29,10,16,479.80
2008,03,29,10,17,476.60
2008,03,29,10,18,509.20
2008,03,29,10,19,513.00
2008,03,29,10,20,515.70
2008,03,29,10,21,518.00
2008,03,29,10,22,520.80
2008,03,29,10,23,524.10
2008,03,29,10,24,528.80
2008,03,29,10,25,531.90
2008,03,29,10,26,533.50
2008,03,29,10,27,534.00
2008,03,29,10,28,537.70
2008,03,29,10,29,544.00
2008,03,29,10,30,548.70
2008,03,29,10,31,551.10
2008,03,29,10,32,545.10
2008,03,29,10,33,568.20
2008,03,29,10,34,597.40
2008,03,29,10,35,609.50
2008,03,29,10,36,618.60
2008,03,29,10,37,588.80
2008,03,29,10,38,585.00
2008,03,29,10,39,616.30
2008,03,29,10,40,575.80
2008,03,29,10,41,567.80
2008,03,29,10,42,558.00
2008,03,29,10,43,504.90
2008,03,29,10,44,466.20
2008,03,29,10,45,526.50
2008,03,29,10,46,512.80
2008,03,29,10,47,479.40
2008,03,29,10,48,490.50
2008,03,29,10,49,401.80
2008,03,29,10,50,397.00
2008,03,29,10,51,526.00
2008,03,29,10,52,590.00
2008,03,29,10,53,549.50
2008,03,29,10,54,540.00
2008,03,29,10,55,526.40
2008,03,29,10,56,401.20
2008,03,29,10,57,373.50
2008,03,29,10,58,358.10
2008,03,29,10,59,359.50
2008,03,29,11,00,383.80
2008,03,29,11,01,372.40
2008,03,29,11,02,382.60
2008,03,29,11,03,401.00
2008,03,29,11,04,401.00
2008,03,29,11,05,414.90
2008,03,29,11,06,460.30
2008,03,29,11,07,482.40
2008,03,29,11,08,460.10
2008,03,29,11,09,474.80
2008,03,29,11,10,507.80
2008,03,29,11,11,535.10
2008,03,29,11,12,578.50
2008,03,29,11,13,633.00
2008,03,29,11,14,548.80
2008,03,29,11,15,508.00
2008,03,29,11,16,543.00
2008,03,29,11,17,639.80
2008,03,29,11,18,719.00
2008,03,29,11,19,621.80
2008,03,29,11,20,551.00
2008,03,29,11,21,547.00
2008,03,29,11,22,589.20
2008,03,29,11,23,675.30
2008,03,29,11,24,707.00
2008,03,29,11,25,642.20
2008,03,29,11,26,557.40
2008,03,29,11,27,576.70
2008,03,29,11,28,641.40
2008,03,29,11,29,710.00
2008,03,29,11,30,761.40
2008,03,29,11,31,768.00
2008,03,29,11,32,675.30
2008,03,29,11,33,702.20
2008,03,29,11,34,770.00
2008,03,29,11,35,743.80
2008,03,29,11,36,825.40
2008,03,29,11,37,790.10
2008,03,29,11,38,714.00
2008,03,29,11,39,723.70
2008,03,29,11,40,642.00
2008,03,29,11,41,626.40
2008,03,29,11,42,336.60
2008,03,29,11,43,399.00
2008,03,29,11,44,462.30
2008,03,29,11,45,849.00
2008,03,29,11,46,885.20
2008,03,29,11,47,870.60
2008,03,29,11,48,892.60
2008,03,29,11,49,891.50
2008,03,29,11,50,891.90
2008,03,29,11,51,886.00
2008,03,29,11,52,885.30
2008,03,29,11,53,900.00
2008,03,29,11,54,901.40
2008,03,29,11,55,904.30
2008,03,29,11,56,917.90
2008,03,29,11,57,940.00
2008,03,29,11,58,940.00
2008,03,29,11,59,671.30
2008,03,29,12,00,343.00
2008,03,29,12,01,590.50
2008,03,29,12,02,838.00
2008,03,29,12,03,838.00
2008,03,29,12,04,838.00
2008,03,29,12,05,567.40
2008,03,29,12,06,341.20
2008,03,29,12,07,327.90
2008,03,29,12,08,304.70
2008,03,29,12,09,277.80
2008,03,29,12,10,263.10
2008,03,29,12,11,262.80
2008,03,29,12,12,262.60
2008,03,29,12,13,259.10
2008,03,29,12,14,262.50
2008,03,29,12,15,256.80
2008,03,29,12,16,256.60
2008,03,29,12,17,267.20
2008,03,29,12,18,258.90
2008,03,29,12,19,240.00
2008,03,29,12,20,229.80
2008,03,29,12,21,229.00
2008,03,29,12,22,225.40
2008,03,29,12,23,228.80
2008,03,29,12,24,242.30
2008,03,29,12,25,264.00
2008,03,29,12,26,290.00
2008,03,29,12,27,327.80
2008,03,29,12,28,383.50
2008,03,29,12,29,389.80
2008,03,29,12,30,407.50
2008,03,29,12,31,420.00
2008,03,29,12,32,513.30
2008,03,29,12,33,1042.00
2008,03,29,12,34,986.20
2008,03,29,12,35,670.00
2008,03,29,12,36,740.80
2008,03,29,12,37,955.20
2008,03,29,12,38,966.20
2008,03,29,12,39,973.30
2008,03,29,12,40,967.00
2008,03,29,12,41,972.30
2008,03,29,12,42,969.70
2008,03,29,12,43,976.20
2008,03,29,12,44,1015.60
2008,03,29,12,45,1020.10
2008,03,29,12,46,1035.00
2008,03,29,12,47,1028.30
2008,03,29,12,48,1003.50
2008,03,29,12,49,986.00
2008,03,29,12,50,1022.80
2008,03,29,12,51,1053.00
2008,03,29,12,52,1053.00
2008,03,29,12,53,1053.00
2008,03,29,12,54,1053.00
2008,03,29,12,55,1049.80
2008,03,29,12,56,1029.80
2008,03,29,12,57,1008.80
2008,03,29,12,58,1004.00
2008,03,29,12,59,1004.00
2008,03,29,13,00,1004.00
2008,03,29,13,01,988.80
2008,03,29,13,02,976.10
2008,03,29,13,03,963.50
2008,03,29,13,04,949.60
2008,03,29,13,05,953.00
2008,03,29,13,06,947.20
2008,03,29,13,07,979.10
2008,03,29,13,08,924.50
2008,03,29,13,09,982.80
2008,03,29,13,10,986.20
2008,03,29,13,11,989.80
2008,03,29,13,12,997.00
2008,03,29,13,13,1012.30
2008,03,29,13,14,994.20
2008,03,29,13,15,918.30
2008,03,29,13,16,865.50
2008,03,29,13,17,845.00
2008,03,29,13,18,789.70
2008,03,29,13,19,771.80
2008,03,29,13,20,706.20
2008,03,29,13,21,682.70
2008,03,29,13,22,724.00
2008,03,29,13,23,673.50
2008,03,29,13,24,510.50
2008,03,29,13,25,476.00
2008,03,29,13,26,476.00
2008,03,29,13,27,476.00
2008,03,29,13,28,394.70
2008,03,29,13,29,217.30
2008,03,29,13,30,180.50
2008,03,29,13,31,158.60
2008,03,29,13,32,143.00
2008,03,29,13,33,129.60
2008,03,29,13,34,118.90
2008,03,29,13,35,112.50
2008,03,29,13,36,108.00
2008,03,29,13,37,103.30
2008,03,29,13,38,100.90
2008,03,29,13,39,98.80
2008,03,29,13,40,98.00
2008,03,29,13,41,98.00
2008,03,29,13,42,98.00
2008,03,29,13,43,97.30
2008,03,29,13,44,97.00
2008,03,29,13,45,95.60
2008,03,29,13,46,96.40
2008,03,29,13,47,97.00
2008,03,29,13,48,99.20
2008,03,29,13,49,101.60
2008,03,29,13,50,104.40
2008,03,29,13,51,108.40
2008,03,29,13,52,113.20
2008,03,29,13,53,119.10
2008,03,29,13,54,124.50
2008,03,29,13,55,131.30
2008,03,29,13,56,140.10
2008,03,29,13,57,148.60
2008,03,29,13,58,161.40
2008,03,29,13,59,176.00
2008,03,29,14,00,193.00
2008,03,29,14,01,224.10
2008,03,29,14,02,248.80
2008,03,29,14,03,304.10
2008,03,29,14,04,346.00
2008,03,29,14,05,323.40
2008,03,29,14,06,327.00
2008,03,29,14,07,355.20
2008,03,29,14,08,467.60
2008,03,29,14,09,447.00
2008,03,29,14,10,382.20
2008,03,29,14,11,408.50
2008,03,29,14,12,351.70
2008,03,29,14,13,346.60
2008,03,29,14,14,340.70
2008,03,29,14,15,333.90
2008,03,29,14,16,325.60
2008,03,29,14,17,314.20
2008,03,29,14,18,303.60
2008,03,29,14,19,295.70
2008,03,29,14,20,292.20
2008,03,29,14,21,288.50
2008,03,29,14,22,286.00
2008,03,29,14,23,283.00
2008,03,29,14,24,279.90
2008,03,29,14,25,281.10
2008,03,29,14,26,289.60
2008,03,29,14,27,316.00
2008,03,29,14,28,319.50
2008,03,29,14,29,313.00
2008,03,29,14,30,311.70
2008,03,29,14,31,323.60
2008,03,29,14,32,329.00
2008,03,29,14,33,586.10
2008,03,29,14,34,755.00
2008,03,29,14,35,777.00
2008,03,29,14,36,681.50
2008,03,29,14,37,656.80
2008,03,29,14,38,685.80
2008,03,29,14,39,670.00
2008,03,29,14,40,691.70
2008,03,29,14,41,712.20
2008,03,29,14,42,732.80
2008,03,29,14,43,716.00
2008,03,29,14,44,690.20
2008,03,29,14,45,752.80
2008,03,29,14,46,717.00
2008,03,29,14,47,717.00
2008,03,29,14,48,717.00
2008,03,29,14,49,697.00
2008,03,29,14,50,316.00
2008,03,29,14,51,306.90
2008,03,29,14,52,252.30
2008,03,29,14,53,235.80
2008,03,29,14,54,227.20
2008,03,29,14,55,218.80
2008,03,29,14,56,212.50
2008,03,29,14,57,205.80
2008,03,29,14,58,200.20
2008,03,29,14,59,192.30
2008,03,29,15,00,183.90
2008,03,29,15,01,176.90
2008,03,29,15,02,169.60
2008,03,29,15,03,162.60
2008,03,29,15,04,156.10
2008,03,29,15,05,151.40
2008,03,29,15,06,147.70
2008,03,29,15,07,144.20
2008,03,29,15,08,140.60
2008,03,29,15,09,138.10
2008,03,29,15,10,136.00
2008,03,29,15,11,134.50
2008,03,29,15,12,134.00
2008,03,29,15,13,134.00
2008,03,29,15,14,134.00
2008,03,29,15,15,134.60
2008,03,29,15,16,135.00
2008,03,29,15,17,136.30
2008,03,29,15,18,137.00
2008,03,29,15,19,135.70
2008,03,29,15,20,135.00
2008,03,29,15,21,132.80
2008,03,29,15,22,130.50
2008,03,29,15,23,126.20
2008,03,29,15,24,121.00
2008,03,29,15,25,115.10
2008,03,29,15,26,108.10
2008,03,29,15,27,101.00
2008,03,29,15,28,95.50
2008,03,29,15,29,90.50
2008,03,29,15,30,83.30
2008,03,29,15,31,79.20
2008,03,29,15,32,74.20
2008,03,29,15,33,70.00
2008,03,29,15,34,67.00
2008,03,29,15,35,62.80
2008,03,29,15,36,59.60
2008,03,29,15,37,55.70
2008,03,29,15,38,52.60
2008,03,29,15,39,48.70
2008,03,29,15,40,46.50
2008,03,29,15,41,43.60
2008,03,29,15,42,41.60
2008,03,29,15,43,39.80
2008,03,29,15,44,39.00
2008,03,29,15,45,39.00
2008,03,29,15,46,39.00
2008,03,29,15,47,39.30
2008,03,29,15,48,40.00
2008,03,29,15,49,40.00
2008,03,29,15,50,40.00
2008,03,29,15,51,40.00
2008,03,29,15,52,39.60
2008,03,29,15,53,39.00
2008,03,29,15,54,38.10
2008,03,29,15,55,37.00
2008,03,29,15,56,36.10
2008,03,29,15,57,35.00
2008,03,29,15,58,34.00
2008,03,29,15,59,33.00
2008,03,29,16,00,34.20
2008,03,29,16,01,35.00
2008,03,29,16,02,35.00
2008,03,29,16,03,36.30
2008,03,29,16,04,38.30
2008,03,29,16,05,39.70
2008,03,29,16,06,40.00
2008,03,29,16,07,40.00
2008,03,29,16,08,40.00
2008,03,29,16,09,41.50
2008,03,29,16,10,42.00
2008,03,29,16,11,42.00
2008,03,29,16,12,40.40
2008,03,29,16,13,40.00
2008,03,29,16,14,40.00
2008,03,29,16,15,41.70
2008,03,29,16,16,42.00
2008,03,29,16,17,43.90
2008,03,29,16,18,45.90
2008,03,29,16,19,47.00
2008,03,29,16,20,51.00
2008,03,29,16,21,53.10
2008,03,29,16,22,56.10
2008,03,29,16,23,58.40
2008,03,29,16,24,62.30
2008,03,29,16,25,65.40
2008,03,29,16,26,69.30
2008,03,29,16,27,72.30
2008,03,29,16,28,74.30
2008,03,29,16,29,76.00
2008,03,29,16,30,75.60
2008,03,29,16,31,73.60
2008,03,29,16,32,71.50
2008,03,29,16,33,69.10
2008,03,29,16,34,65.80
2008,03,29,16,35,62.10
2008,03,29,16,36,58.60
2008,03,29,16,37,54.90
2008,03,29,16,38,52.20
2008,03,29,16,39,50.20
2008,03,29,16,40,49.00
2008,03,29,16,41,48.10
2008,03,29,16,42,47.00
2008,03,29,16,43,46.50
2008,03,29,16,44,46.00
2008,03,29,16,45,46.00
2008,03,29,16,46,44.90
2008,03,29,16,47,44.00
2008,03,29,16,48,44.00
2008,03,29,16,49,42.80
2008,03,29,16,50,42.00
2008,03,29,16,51,42.00
2008,03,29,16,52,40.70
2008,03,29,16,53,40.00
2008,03,29,16,54,39.30
2008,03,29,16,55,37.50
2008,03,29,16,56,37.00
2008,03,29,16,57,35.50
2008,03,29,16,58,35.00
2008,03,29,16,59,33.40
2008,03,29,17,00,33.00
2008,03,29,17,01,32.10
2008,03,29,17,02,30.30
2008,03,29,17,03,30.00
2008,03,29,17,04,30.00
2008,03,29,17,05,28.20
2008,03,29,17,06,28.00
2008,03,29,17,07,28.00
2008,03,29,17,08,28.00
2008,03,29,17,09,28.00
2008,03,29,17,10,28.00
2008,03,29,17,11,28.00
2008,03,29,17,12,28.00
2008,03,29,17,13,28.00
2008,03,29,17,14,28.00
2008,03,29,17,15,27.70
2008,03,29,17,16,26.00
2008,03,29,17,17,26.00
2008,03,29,17,18,26.00
2008,03,29,17,19,26.00